Location: Boiro
(42.6475°N, 8.8834°W)
Time: 16:37:51
(UTC+02:00)

COSMOS 2251 DEB - Visible Passes

Search period start: 03 July 2022 00:00
Search period end: 13 July 2022 00:00
Orbit: 738 x 847 km, 74.1° (Epoch: 02 July)

Date Brightness Start Highest point End Pass type
(mag) Time Alt. Az. Time Alt. Az. Time Alt. Az.
03 Jul ? 05:44:57 10° NNE 05:48:26 18° NE 05:51:51 10° E visible
04 Jul ? 05:16:10 10° NNE 05:18:28 13° NE 05:20:44 10° ENE visible
05 Jul ? 06:27:05 10° NNW 06:32:11 60° ENE 06:37:10 10° SSE visible
06 Jul ? 05:57:34 10° N 06:02:26 41° ENE 06:07:13 10° SE visible
07 Jul ? 05:28:09 10° N 05:32:37 29° ENE 05:37:01 10° ESE visible
08 Jul ? 04:58:53 10° N 05:02:45 21° ENE 05:06:34 10° ESE visible
09 Jul ? 04:29:52 10° NNE 04:32:49 15° NE 04:35:44 10° E visible
09 Jul ? 06:10:55 10° NNW 06:16:02 76° WSW 06:21:05 10° SSE visible
10 Jul ? 04:01:38 10° NE 04:02:49 11° NE 04:03:59 10° ENE visible
10 Jul ? 05:41:15 10° NNW 05:46:22 74° ENE 05:51:26 10° SSE visible
11 Jul ? 05:11:40 10° N 05:16:39 50° ENE 05:21:34 10° SE visible
12 Jul ? 04:42:12 10° N 04:46:52 35° ENE 04:51:29 10° SE visible
12 Jul ? 06:25:01 10° NW 06:29:18 28° W 06:33:34 10° SSW visible
